YAOGAN-30 AB

导读 | 星芒AI

YAOGAN-30 AB 是中国发射的一组遥感卫星,属于遥感三十号系列,主要用于科学实验、国土资源普查、农作物估产及防灾减灾等领域。该卫星由长征二号丁运载火箭发射升空,具备高分辨率对地观测能力,能够提供精确的遥感数据,支持国家在环境监测、气象预测和资源管理等方面的应用。其技术先进,运行稳定,是中国航天遥感技术发展的重要成果之一。

基本信息
目录编号:
48861
目录名称:
YAOGAN-30 AB
国际标识:
2021-055B
轨道中心:
EARTH
卫星名称:
YAOGAN-30 AB
卫星全名:
--
卫星状态:
在轨 (已飞行1597 天)
发射日期:
2021-06-18 UTC
国别 :
中国 (CN)
星等 :
--
轨道信息
数据来源 国际轨道数据 AOE轨道数据
星历时间 2025-11-01T04:31:17+0800
6小时前
查看轨道信息
2025-10-30T23:00:00+0800
1天前
查看轨道信息
半长轴 6941.758km 6941.792km
偏心率 0.0004549 0.0004525
轨道倾角 34.994° 34.993°
近地点辐角 254.089° 246.605°
升交点赤经 102.044° 109.522°
平近点角 105.931° 295.698°
近地点 560.465km 560.515km
远地点 566.781km 566.799km
周期 95.932分钟 95.933分钟
每日圈数 15.010618 15.010509
详细信息
使用方式:
暂无
2D轨道图
3D轨道图
轨道高度分析图
轨道倾角分析图
轨道综合分析图
查看轨道综合分析图